Regional Weather Roundup
Issued by NWS

Current Version | Previous Version | Text Only | Print | Product List | Glossary On
Versions: 1 2 3 4 5 6 7 8 9 10 11 12 13 14 15 16 17 18 19 20 21 22 23 24 25 26 27 28 29 30 31 32 33 34 35 36 37 38 39 40 41 42 43 44 45 46 47 48 49 50
000
ASUS46 KSTO 230915
RWRCA

NORTHERN AND CENTRAL CA REGIONAL WEATHER ROUNDUP
NATIONAL WEATHER SERVICE SACRAMENTO CA
200 AM PDT MON OCT 23 2017

NOTE: FAIR INDICATES FEW OR NO CLOUDS BELOW 12,000 FEET WITH NO
SIGNIFICANT WEATHER AND/OR OBSTRUCTIONS TO VISIBILITY.

CAZ001-003-231000-
NORTHWEST AREA

CITY           SKY/WX    TMP DP  RH WIND       PRES   REMARKS
CRESCENT CITY  FOG       49  49 100 N5        30.43S VSB 1/4
UKIAH          CLEAR     55  50  83 CALM      30.32S
$$

CAZ006-505>513-231000-
BAY AREA

CITY           SKY/WX    TMP DP  RH WIND       PRES   REMARKS
SANTA ROSA     CLEAR     54  51  90 W3        30.23F
SAN RAFAEL     N/A       58  MM  MM MISG
NAPA           CLEAR     51  48  89 CALM      30.25S
CONCORD        CLEAR     59  51  75 CALM      30.24F
OAKLAND CITY   N/A      MM  MM  MM MISG
OAKLAND        CLEAR     55  53  93 NE3       30.25F
SAN FRAN CITY  N/A       61  MM  69 MISG
SAN FRAN ARPT  CLEAR     59  50  72 CALM      30.24F
LIVERMORE      CLEAR     62  48  60 NE8       30.24F
HAYWARD        CLEAR     58  48  69 CALM      30.24F
REDWOOD CITY   N/A       54  MM  85 MISG
MOFFETT ARPT   CLEAR     57  51  80 CALM      30.25F
SAN JOSE ARPT  CLEAR     57  52  83 E5        30.25F
$$
CAZ034-037-514>518-231000-
CENTRAL COAST

CITY           SKY/WX    TMP DP  RH WIND       PRES   REMARKS
WATSONVILLE    CLEAR     55  53  93 N7        30.24F
SALINAS        CLEAR     53  48  83 SE3       30.24S
MONTEREY       CLEAR     60  46  59 E10       30.23F
SAN LUIS OBISP CLEAR     63  42  46 SW5       30.14S
SANTA MARIA    CLEAR     66  42  41 CALM      30.13S
$$
CAZ015-016-231000-
NORTHERN SACRAMENTO VALLEY

CITY           SKY/WX    TMP DP  RH WIND       PRES   REMARKS
REDDING        CLEAR     65  51  60 N7        30.32S
RED BLUFF      CLEAR     61  51  70 N7        30.32S
OROVILLE       CLEAR     62  51  67 NW9       30.24F
$$
CAZ016>018-231000-
SOUTHERN SACRAMENTO VALLEY

CITY           SKY/WX    TMP DP  RH WIND       PRES   REMARKS
AUBURN         CLEAR     59  46  63 CALM      30.26S
BEALE AFB      CLEAR     57  50  77 N8        30.21S
LINCOLN        FAIR      54  46  76 CALM      30.23R
MARYSVILLE     CLEAR     67  52  58 N15       30.22F
SAC INTL ARPT  CLEAR     57  50  77 E6        30.23S
MATHER AIRPORT NOT AVBL
DOWNTOWN SAC   N/A       57  MM  MM MISG
SAC EXEC ARPT  CLEAR     55  51  86 NE3       30.24S
VACAVILLE      CLEAR     55  48  77 S3        30.25S
TRAVIS AFB     CLEAR     58  51  77 CALM      30.22S
$$
CAZ019>021-231000-
SAN JOAQUIN VALLEY

CITY           SKY/WX    TMP DP  RH WIND       PRES   REMARKS
STOCKTON       CLEAR     54  46  74 CALM      30.24F
MODESTO        CLEAR     51  48  89 E7        30.24F
MERCED         CLEAR     49  44  83 SE3       30.25F
LEMOORE          N/A    N/A N/A N/A CALM      30.28S
FRESNO         CLEAR     54  48  80 CALM      30.28F
HANFORD        CLEAR     47  46  97 CALM      30.29S
PORTERVILLE    CLEAR     53  44  71 CALM      30.29S
BAKERSFIELD    CLEAR     55  43  63 E5        30.27F
$$
CAZ011-012-071-231000-
NORTHERN MOUNTAINS

CITY           SKY/WX    TMP DP  RH WIND       PRES   REMARKS
YREKA          CLEAR     47  45  93 CALM      30.52R
MOUNT SHASTA   CLEAR     50  47  89 VRB3      30.51R
ALTURAS        CLEAR     43  42  97 NE3       30.55R
$$
CAZ011-012-071-231000-
SIERRA NEVADA MTNS

CITY           SKY/WX    TMP DP  RH WIND       PRES   REMARKS
BLUE CANYON    CLEAR     64  31  28 NE10G20   30.46S
TRUCKEE        CLEAR     32  30  93 N5        30.58S WCI  27
TAHOE VLY ARPT CLEAR     33  28  81 CALM      30.58R
MAMMOTH LAKES  FAIR      41  12  30 CALM      30.63R
$$



USA.gov is the U.S. government's official web portal to all federal, state and local government web resources and services.